Regional Weather Roundup
Issued by NWS Charleston, SC

Current Version | Previous Version | Text Only | Print | Product List | Glossary Off
Versions: 1 2 3 4 5 6 7 8 9 10 11 12 13 14 15 16 17 18 19 20 21 22 23 24 25 26 27 28 29 30 31 32 33 34 35 36 37 38 39 40 41 42 43 44 45 46 47 48 49 50

000
ASUS42 KCHS 270910
RWRCHS
REGIONAL WEATHER ROUNDUP
NATIONAL WEATHER SERVICE CHARLESTON SC
400 AM EST TUE JAN 27 2015

NOTE: "FAIR" INDICATES FEW OR NO CLOUDS BELOW 12,000 FEET WITH NO
SIGNIFICANT WEATHER AND/OR OBSTRUCTIONS TO VISIBILITY.

NOT ALL STATIONS ARE QUALITY CONTROLLED BY THE NATIONAL
WEATHER SERVICE. USE DATA WITH CAUTION...ESPECIALLY
DEWPOINT OBSERVATIONS.

SCZ027-030-031-034>040-042>050-271000-
...SOUTHEAST SOUTH CAROLINA...

CITY           SKY/WX    TMP DP  RH WIND       PRES   REMARKS
N CHARLESTON   CLEAR     38  29  70 W9        29.82R WCI  31
WATERFRONT PRK   N/A     39 N/A N/A W9G18       N/A  WCI  33
MOUNT PLEASANT FAIR     N/A N/A N/A W7G16     29.80R
PINOPOLIS      NOT AVBL
MONCKS CORNER  FAIR      39  30  70 W3        29.81R
SUMMERVILLE    NOT AVBL
BEAUFORT MCAS  CLEAR     38  29  70 W10       29.85S WCI  31
BEAUFORT ARPT  FAIR      37  32  81 W10G17    29.84F WCI  30
HILTON HEAD IS CLEAR     39  32  75 SW14      29.86F WCI  31
WALTERBORO     SUNNY     37  28  70 W9        29.84F WCI  31
ALLENDALE      FAIR      37  28  70 VRB5      29.84S WCI  34

...SOUTHERN MIDLANDS AND PEE DEE...

CITY           SKY/WX    TMP DP  RH WIND       PRES   REMARKS
GEORGETOWN     NOT AVBL
KINGSTREE      NOT AVBL
ORANGEBURG     CLEAR     36  26  67 W7        29.82F WCI  30
BARNWELL       FAIR      36  28  75 W3        29.84F
AIKEN          FAIR      32  28  86 W6        29.85S WCI  26
MANNING        NOT AVBL
COLUMBIA       CLEAR     35  26  69 W9        29.82R WCI  28
SUMTER         CLEAR     36  23  59 W9        29.78S WCI  29
FLORENCE       MOCLDY    38  25  59 NW7       29.77R WCI  33
MYRTLE BEACH   CLEAR     43  28  56 NW15      29.76R
N MYRTLE BEACH MOCLDY    42  32  67 NW9G17    29.73R

$$

GAZ063-065-086>088-099>101-113>116-118-119-134>141-150-271000-
...SOUTHEAST GEORGIA...

CITY           SKY/WX    TMP DP  RH WIND       PRES   REMARKS
SAVANNAH ARPT  CLEAR     38  28  67 W14       29.87F WCI  30
HUNTER AAF     CLEAR     38  29  71 W13       29.85F WCI  30
FORT STEWART   CLEAR     39  28  65 W13       29.89F WCI  31
STATESBORO     CLEAR     38  30  73 W14       29.88S WCI  30
SYLVANIA       NOT AVBL
CLAXTON        FAIR      37  32  81 W9        29.90F WCI  31

...CSRA...CENTRAL AND FAR SOUTHEAST GEORGIA...

CITY           SKY/WX    TMP DP  RH WIND       PRES   REMARKS
THOMSON        CLEAR     36  31  82 W8G17     29.89F WCI  29
AUGUSTA-BUSH   CLEAR     35  26  69 W9        29.85F WCI  28
AUGUSTA-DANIEL CLEAR     36  26  67 W6        29.84S WCI  31
SWAINSBORO     FAIR      37  25  60 W7        29.91F WCI  32
VIDALIA        CLEAR     36  32  87 W7        29.93S WCI  30
EASTMAN        FAIR      36  33  90 CALM      29.96F
HAZLEHURST     FAIR      38  34  85 CALM      29.93F
ALMA           MOCLDY    39  32  76 W6        29.95S WCI  35
WAYCROSS       NOT AVBL
JESUP          FAIR      43  34  70 NW9       29.93F
BAXLEY         FAIR      39  32  75 W5        29.94S WCI  36
BRUNSWICK      CLEAR     41  32  70 W9        29.93S
SAINT SIMONS   PTCLDY    41  30  65 W10G21    29.92R

$$

SCZ027-028-034-036>038-045-046-048>050-GAZ119-141-271000-
...LAKE AND SUPPLEMENTAL COASTAL OBSERVATIONS...

STATION/POSITION TIME  TEMP    WIND        PRES    WAVE   SWELL
                       AIR SEA DIR/SP/G            HT/PER HT/PER/DIR
                 (UTC) (F)     (DEG/KT/KT) (MB)    (FT/S) (FT/S/D)
UPR LAKE MARION  NOT AVBL
WINYAH BAY       0800   42     280/  9     1006.0S
LAKE MURRAY      0800   37     280/  7/ 10 1008.8F
ACE BASIN NERRS  NOT AVBL
FORT PULASKI     0900   40 53  280/ 15/ 19 1011.6F
SAPELO ISLAND    0800   41     280/ 13     1012.0S

$$

ANZ835-935-AMZ111-154-330-350-352-354-370-450-454-472-271000-
...C-MAN AND BUOY OBSERVATIONS...

STATION/POSITION TIME  TEMP    WIND        PRES    WAVE   SWELL
                       AIR SEA DIR/SP/G            HT/PER HT/PER/DIR
                 (UTC) (F)     (DEG/KT/KT) (MB)    (FT/S) (FT/S/D)
BUOY 41004       0900   47 68  300/ 25/ 33 1007.1R   7/ 8   2/15
BUOY 41008       0900   45 54  300/ 27/ 31 1010.9S   5/ 5
FOLLY BEACH CMAN 0800   40     280/ 10/ 16 1009.5R
CAPERS NEARSHORE 0800   43     300/ 21/ 25   N/A
FRIPP NEARSHORE  0800   43     300/ 21/ 25   N/A


STATION/POSITION TIME  TEMP    WIND        PRES    WAVE   SWELL
                       AIR SEA DIR/SP/G            HT/PER HT/PER/DIR
                 (UTC) (F)     (DEG/KT/KT) (MB)    (FT/S) (FT/S/D)
5E ST. MARYS GA  0900      58                N/A     3/ 4
FRYING PAN BUOY  0900   49 66  310/ 19/ 23 1004.7R   7/ 8   3/200/ 8
BUOY 41025       0900   44 67  330/ 25/ 29 1001.3R   6/ 7
CAPE LOOKOUT NC  0800   45     330/ 20/ 23 1003.0R
BUOY 41002       0837   62 72  280/ 27/ 33 1001.2S  14/10
BUOY 41010       0900   62 76  300/ 25/ 33 1009.4F  13/ 9
ST AUGUSTINE FL  0900   43     290/ 10/ 14 1014.9R


$$


USA.gov is the U.S. government's official web portal to all federal, state and local government web resources and services.